Regional Weather Roundup
Issued by NWS

Home | Current Version | Previous Version | Text Only | Print | Product List | Glossary On
Versions: 1 2 3 4 5 6 7 8 9 10 11 12 13 14 15 16 17 18 19 20 21 22 23 24 25 26 27 28 29 30 31 32 33 34 35 36 37 38 39 40 41 42 43 44 45 46 47 48 49 50
000
ASUS43 KTOP 190508
RWRKS

WEATHER ROUNDUP FOR KANSAS
NATIONAL WEATHER SERVICE GOODLAND KS
1100 PM CST SAT FEB 18 2017

NOTE:  "FAIR" INDICATES FEW OR NO CLOUDS BELOW 12,000 FEET WITH NO
SIGNIFICANT WEATHER AND/OR OBSTRUCTIONS TO VISIBILITY.

KSZ001>006-013>018-027>032-041>047-190600-
NORTHWEST KANSAS

CITY           SKY/WX    TMP DP  RH WIND       PRES   REMARKS
GOODLAND       CLOUDY    49  29  46 S16       29.72F
HAYS           PTCLDY    50  44  80 SE5       29.80R
HILL CITY      MOCLDY    53  40  61 S8        29.77S
RUSSELL        CLEAR     53  46  77 S17       29.78S
$$

KSZ061>065-074>080-084>089-190600-
SOUTHWEST KANSAS

CITY           SKY/WX    TMP DP  RH WIND       PRES   REMARKS
DODGE CITY     CLEAR     48  43  82 S14       29.81S
ELKHART          N/A     45  29  53 S10         N/A
GARDEN CITY    PTCLDY    45  34  65 S9        29.78S
GREAT BEND     CLEAR     51  47  86 S14       29.80S
LIBERAL        CLOUDY    50  37  62 SE14      29.81S
PRATT          CLEAR     50  46  84 SE8       29.81F
$$

KSZ066>073-081>083-090>101-190600-
SOUTHEAST KANSAS

CITY           SKY/WX    TMP DP  RH WIND       PRES   REMARKS
CHANUTE        CLEAR     52  48  86 SW5       29.90R
COFFEYVILLE    CLEAR     47  46  97 CALM      29.90R
HUTCHINSON     CLEAR     48  44  86 SE6       29.85R
MEDICINE LODGE   N/A     52  47  83 SE7       29.82F
NEWTON         CLEAR     51  46  83 S13       29.86R
PARSONS        CLEAR     44  42  93 CALM      29.91R FOG
WICHITA INTL   CLEAR     50  47  89 S9        29.86R
WICHITA JABRA  CLEAR     52  48  86 S9        29.86S
WICHITA MCCONL CLEAR     52  47  83 S8        29.86R
WINFIELD       CLEAR     51  48  89 SE7       29.88S
$$

KSZ007>012-019>026-033>040-048>060-102>105-190600-
NORTHEAST KANSAS

CITY           SKY/WX    TMP DP  RH WIND       PRES   REMARKS
CONCORDIA      MOCLDY    57  44  62 S18       29.79R
EMPORIA        CLEAR     51  48  89 S12       29.86R
LAWRENCE       CLEAR     52  47  83 SE5       29.87R
MANHATTAN      PTCLDY    42  36  79 CALM      29.83R
MARYSVILLE     CLEAR     52  39  62 S6        29.81S
OLATHE IND     CLEAR     50  46  86 S7        29.88R
OLATHE EXE     CLEAR     51  48  89 S6        29.86R
SALINA         CLEAR     51  45  79 S8        29.83R
TOPEKA BILLARD CLEAR     56  47  71 S8        29.85R
TOPEKA FORBES  CLEAR     54  47  77 SW9       29.86R
$$




USA.gov is the U.S. government's official web portal to all federal, state and local government web resources and services.